Orangeburg, SC

11:29 PM EST on December 04, 2016 (GMT -0500)
Orangeburg Municipal

Weather History for KOGB - February, 2014

Change the Weather History Date:

Friday, February 28, 2014

  Actual Average Record
Temperature  
Mean Temperature 44 °F 52 °F  
Max Temperature 57 °F 64 °F 84 °F (2011)
Min Temperature 31 °F 41 °F 19 °F (2002)
Degree Days  
Heating Degree Days 21 13  
Month to date heating degree days 367 435  
Since 1 July heating degree days 1864 1932  
Cooling Degree Days 0 0  
Month to date cooling degree days 6 2  
Year to date cooling degree days 6 3  
Moisture  
Dew Point 26 °F    
Average Humidity 51    
Maximum Humidity 85    
Minimum Humidity 31    
Precipitation  
Precipitation 0.00 in 0.15 in 1.55 in (1984)
Month to date precipitation 3.76 3.59  
Year to date precipitation 5.92 7.57  
Sea Level Pressure  
Sea Level Pressure 30.14 in    
Wind  
Wind Speed 7 mph (ENE)    
Max Wind Speed 16 mph    
Max Gust Speed 22 mph    
Visibility 10 miles    
Events      
T = Trace of Precipitation, MM = Missing Value Source: NWS Daily Summary

Daily Weather History Graph

Daily Weather History Graph

Search for Another Location

Airport or City:

Trip Planner

Search our weather history database for the weather conditions in past years. The results will help you decide how hot, cold, wet, or windy it might be!

Date:

Astronomy

Feb. 28, 2014 Rise Set
Actual Time 6:52 AM EST 6:19 PM EST
Civil Twilight 6:27 AM EST 6:44 PM EST
Nautical Twilight 5:59 AM EST 7:13 PM EST
Astronomical Twilight 5:30 AM EST 7:42 PM EST
Moon 6:05 AM EST (2/28) 5:53 PM EST (2/28)
Length of Visible Light 12h 16m
Length of Day
11h 26m
Waning Crescent, 1% of the Moon is Illuminated
Feb 28
Waning Crescent
Mar 1
New
Mar 8
First Quarter
Mar 16
Full
Mar 23
Last Quarter

Hourly Weather History & Observations

Time (EST) Temp. Windchill Dew Point Humidity Pressure Visibility Wind Dir Wind Speed Gust Speed Precip Events Conditions
12:53 AM 39.0 °F 34.8 °F 23.0 °F 53% 29.97 in 10.0 mi North 5.8 mph - N/A   Clear
1:53 AM 33.1 °F 30.0 °F 28.9 °F 85% 29.99 in 10.0 mi West 3.5 mph - N/A   Clear
2:53 AM 32.0 °F - 27.0 °F 82% 30.00 in 10.0 mi Calm Calm - N/A   Clear
3:53 AM 36.0 °F 29.6 °F 21.0 °F 55% 30.01 in 10.0 mi NE 8.1 mph - N/A   Clear
4:53 AM 36.0 °F 29.6 °F 19.9 °F 52% 30.04 in 10.0 mi ENE 8.1 mph - N/A   Clear
5:53 AM 36.0 °F 29.0 °F 18.0 °F 48% 30.07 in 10.0 mi ENE 9.2 mph - N/A   Clear
6:53 AM 36.0 °F 29.6 °F 17.1 °F 46% 30.11 in 10.0 mi ENE 8.1 mph - N/A   Clear
7:53 AM 37.0 °F 30.4 °F 16.0 °F 42% 30.13 in 10.0 mi ENE 9.2 mph - N/A   Clear
8:53 AM 39.9 °F 33.4 °F 16.0 °F 38% 30.17 in 10.0 mi ENE 10.4 mph - N/A   Clear
9:53 AM 44.1 °F 38.1 °F 16.0 °F 32% 30.19 in 10.0 mi NE 11.5 mph 18.4 mph N/A   Clear
10:53 AM 46.9 °F - 18.0 °F 32% 30.20 in 10.0 mi NE 13.8 mph 19.6 mph N/A   Clear
11:53 AM 48.9 °F - 19.9 °F 32% 30.21 in 10.0 mi ENE 8.1 mph 21.9 mph N/A   Clear
12:53 PM 52.0 °F - 23.0 °F 32% 30.18 in 10.0 mi ENE 10.4 mph - N/A   Clear
1:53 PM 53.1 °F - 24.1 °F 32% 30.16 in 10.0 mi NE 9.2 mph - N/A   Clear
2:53 PM 55.0 °F - 28.0 °F 35% 30.14 in 10.0 mi ENE 8.1 mph - N/A   Clear
3:53 PM 57.0 °F - 28.9 °F 34% 30.14 in 10.0 mi ENE 9.2 mph - N/A   Clear
4:53 PM 55.9 °F - 30.9 °F 39% 30.15 in 10.0 mi East 6.9 mph - N/A   Clear
5:53 PM 54.0 °F - 33.1 °F 45% 30.17 in 10.0 mi ESE 5.8 mph - N/A   Clear
6:53 PM 50.0 °F - 33.1 °F 52% 30.17 in 10.0 mi East 3.5 mph - N/A   Clear
7:53 PM 46.9 °F - 34.0 °F 61% 30.19 in 10.0 mi Calm Calm - N/A   Clear
8:53 PM 44.1 °F 42.5 °F 35.1 °F 71% 30.20 in 10.0 mi NE 3.5 mph - N/A   Clear
9:53 PM 42.1 °F - 34.0 °F 73% 30.21 in 10.0 mi Calm Calm - N/A   Clear
10:53 PM 39.9 °F 37.8 °F 35.1 °F 83% 30.22 in 9.0 mi ENE 3.5 mph - N/A   Mostly Cloudy
11:53 PM 41.0 °F - 33.1 °F 73% 30.22 in 10.0 mi Calm Calm - N/A   Clear